This is the latest recevied weather packets stored in our database for station/object KC1HBM. If no packets are shown the sender has not sent any weather packets the latest 10 day(s).
| Time | Temp. | Humidity | Pressure | Rain* | Wind** | Luminosity | Snow |
|---|---|---|---|---|---|---|---|
| 1777946238 | 12.78° C | 74% | 1005.4 hPa | 0 mm | - | 0 W/m² | - |
| 1777945934 | 12.78° C | 75% | 1005.3 hPa | 0 mm | - | 0 W/m² | - |
| 1777945631 | 12.78° C | 75% | 1005.4 hPa | 0 mm | - | 0 W/m² | - |
| 1777945329 | 12.78° C | 75% | 1005.3 hPa | 0 mm | - | 0 W/m² | - |
| 1777945025 | 12.78° C | 75% | 1005.2 hPa | 0 mm | - | 0 W/m² | - |
| 1777944722 | 12.22° C | 75% | 1005.3 hPa | 0 mm | - | 0 W/m² | - |
| 1777944421 | 12.22° C | 75% | 1005 hPa | 0 mm | - | 0 W/m² | - |
| 1777944118 | 12.22° C | 75% | 1004.8 hPa | 0 mm | - | 0 W/m² | - |
| 1777943813 | 11.67° C | 76% | 1004.9 hPa | 0 mm | - | 0 W/m² | - |
| 1777943510 | 11.67° C | 78% | 1004.8 hPa | 0 mm | - | 0 W/m² | - |
| 1777943206 | 11.11° C | 80% | 1005 hPa | 0 mm | - | 0 W/m² | - |
| 1777942903 | 11.11° C | 80% | 1005 hPa | 0 mm | - | 0 W/m² | - |
| 1777942598 | 10.56° C | 82% | 1004.8 hPa | 0 mm | - | 0 W/m² | - |
| 1777942296 | 10.56° C | 83% | 1004.9 hPa | 0 mm | - | 0 W/m² | - |
| 1777941993 | 10.56° C | 83% | 1004.8 hPa | 0 mm | - | 0 W/m² | - |
| 1777941689 | 10.56° C | 83% | 1004.5 hPa | 0 mm | - | 0 W/m² | - |
| 1777941387 | 10.56° C | 83% | 1004.4 hPa | 0 mm | - | 0 W/m² | - |
| 1777941084 | 10.56° C | 83% | 1004.4 hPa | 0 mm | - | 0 W/m² | - |
| 1777940780 | 10.56° C | 82% | 1004.3 hPa | 0 mm | - | 0 W/m² | - |
| 1777940479 | 11.11° C | 81% | 1004.2 hPa | 0 mm | - | 0 W/m² | - |
| 1777940175 | 11.11° C | 80% | 1004 hPa | 0 mm | - | 0 W/m² | - |
| 1777939873 | 11.67° C | 79% | 1003.8 hPa | 0 mm | - | 0 W/m² | - |
| 1777939570 | 11.67° C | 77% | 1003.9 hPa | 0 mm | - | 0 W/m² | - |
| 1777939268 | 12.22° C | 75% | 1003.9 hPa | 0 mm | - | 0 W/m² | - |
| 1777938964 | 12.78° C | 73% | 1003.6 hPa | 0 mm | - | 0 W/m² | - |
* Rain latest hour (hover to see other rain measurements)
** Current wind speed in m/s (hover to see current wind gust speed)